World > North America > United States > Montana

Billings, Montana Regional Weather

Lat: 45.79N, Lon: 108.54W
Wx Zone: MTZ035
Feedback

Billings, MT Regional Weather

Expires:201907212200;;423448
ASUS45 KTFX 212110
RWRMT 
Montana Regional Weather Roundup
National Weather Service Great Falls MT
300 PM MDT SUN JUL 21 2019

NOTE: "FAIR" indicates few or no clouds below 12,000 feet with no
significant weather and/or obstructions to visibility.


MTZ028>42-056>058-212200-
Southcentral and southeast Montana
  
CITY           SKY/WX    TMP DP  RH WIND       PRES   REMARKS
Baker          FAIR      73  53  49 SE12G18   30.28S                  
Big Timber     SUNNY     72  48  43 VRB7      30.28F                  
Billings       FAIR      77  47  34 NE9       30.26F                  
Forsyth          N/A     77  50  38 E8        30.23F                  
Harlowton      FAIR      71  44  37 SE10      30.28F                  
Laurel           N/A     75  48  38 NE10G17   30.26S                  
Livingston     FAIR      74  46  36 E18       30.25F                  
Miles City     FAIR      79  47  32 MISG      30.23S                  
$$

Regional Reports...Dakotas/MN
  
CITY           SKY/WX    TMP DP  RH WIND       PRES   REMARKS
Williston      PTSUNNY   76  54  46 CALM      30.24S                  
Minot          FAIR      73  58  59 NE8       30.23S                  
Dickinson      PTSUNNY   74  54  49 SW7       30.24S                  
Beach          FAIR      77  50  38 VRB5      30.27S                  
Crosby         FAIR      73  54  49 NE3       30.25S                  
Hettinger      FAIR      67  56  67 SW6       30.28S                  
Tioga          FAIR      75  52  43 NW9G15    30.26S                  
Watford City     N/A    N/A N/A N/A MISG        N/A                   
Bismarck       FAIR      77  54  44 VRB6      30.23S                  
Grand Forks    FAIR      76  52  43 NW14G21   30.17F                  
Fargo          FAIR      75  56  51 N14G20    30.17S                  
Buffalo SD       N/A     72  54  53 E12       30.25S                  
Rapid City     FAIR      72  61  68 NE12G17   30.24S                  
Intl Falls     PTSUNNY   68  48  48 NE8       30.15F                  
Duluth         CLOUDY    75  54  47 NW9       30.10F                  
Minneapolis    PTSUNNY   79  57  46 N14G23    30.06F                  
$$

Regional Reports...WY/ID/WA
  
CITY           SKY/WX    TMP DP  RH WIND       PRES   REMARKS
Buffalo WY     CLOUDY    70  55  59 N10       30.33R                  
Cody           FAIR      73  47  39 NE10      30.29S                  
Gillette       PTSUNNY   72  60  66 N13       30.27R                  
Powell         FAIR      73  41  31 NW9       30.26                   
Sheridan       CLOUDY    76  55  48 NE8       30.28S                  
Yellowstone La   N/A     71  41  33 VRB5      30.38S                  
Boise          FAIR      92  38  15 NW5       30.00F                  
Couer d'Alene  FAIR      82  43  25 E8        30.07F                  
Idaho Falls    FAIR      82  47  29 N3        30.15F                  
Salmon         FAIR      85  43  22 NW6       30.08F                  
Spokane        FAIR      81  37  20 NE5       30.07F                  
Seattle        FAIR      85  49  28 W10       29.97F                  
$$

Regional Reports...Alberta
  
CITY           SKY/WX    TMP DP  RH WIND       PRES   REMARKS
Calgary        MOSUNNY   72  50  46 S20       30.23F                  
Edmonton       MOSUNNY   73  57  56 SE12      30.17F                  
Fort McMurray  MOSUNNY   82  52  34 W6        30.11F                  
High Level     PTSUNNY   82  54  36 S10G18    30.00F SMOKE            
Lethbridge     MOSUNNY   72  48  43 E8        30.24F                  
Lloydminster   MOSUNNY   72  54  53 S6        30.24S                  
Medicine Hat   MOSUNNY   79  46  31 VRB3G41   30.21F                  
Milk River       N/A     73  43  33 S8          N/A                   
Peace River    CLOUDY    77  61  57 S7        30.08F                  
Pincher Creek  MOSUNNY   68  50  52 E10       30.26F                  
Raymond          N/A     72  46  40 E8          N/A                   
Waterton Gate    N/A     68  46  45 E12G21      N/A                   
Fort Smith NWT MOSUNNY   86  50  28 W10       30.00S SMOKE            
$$

Regional Reports...Saskatchewan
  
CITY           SKY/WX    TMP DP  RH WIND       PRES   REMARKS
Assiniboia       N/A     72  50  46 NE5         N/A                   
Coronach         N/A     73  48  40 SW2         N/A                   
Cypress Hills    N/A     70  48  46 SE8         N/A                   
Estevan        MOSUNNY   75  52  43 VRB5      30.24S                  
La Ronge         N/A     75  46  35 SE8         N/A                   
Moose Jaw        N/A     75  50  41 NE3         N/A                   
Prince Albert  MOSUNNY   73  61  64 SW7       30.25F                  
Regina         MOSUNNY   73  54  49 E3        30.25S                  
Rockglen         N/A     70  48  46 NE3         N/A                   
Saskatoon      MOSUNNY   75  55  50 W3        30.27S                  
Swift Current  SUNNY     75  50  41 SE10      30.26S                  
Uranium City     N/A     81  48  32 W5          N/A                   
Val Marie        N/A     73  45  35 SE6         N/A                   
$$
  

SKY/WX - Weather  TMP - Temperature  DP - Dew Point  RH - Relative Humidity
WIND - Wind Direction/Speed PRES - Barometric Pressure VSB - Visibility
WCI - Wind Chill Index E13G22 Wind - East Wind 13 mph/Gusts of 22 mph